Погода в Зенгине

Россия / Кировская область     58°29′49″N   49°01′33″E
темп.,
°C
ветер,
м/с
пор.,
м/с
влажн.,
%
обл.,
%
осадки,
мм/ч
давл.,
гПа
погр.,
м
13 апреля, вт
вт1300:000ююв2393100 0.0 103964
03:00+1юв2699100 0.0 1038204
06:00+2юв38100100 0.0 1037204
09:00+4ююв38100100 0.0 1035290
12:00+5ю28100100 0.0 1034285
15:00+6ю38100100 0.0 1032289
18:00+6ююз4999100 0.0 1031322
21:00+8юз4795100 0.0 1031207
14 апреля, ср
ср1400:00+6юз379897 0.0 1030215
03:00+3ю269982 0.0 1029106
06:00+4ююз2893100 0.0 1029147
09:00+9ююз377499 0.0 1028241
12:00+14ююз47588 0.0 1027538
15:00+15ююз475520 0.0 1025743
18:00+11ю38775 0.0 1024154
21:00+8ююз38905 0.0 1024140
15 апреля, чт
чт1500:00+7ююз36915 0.0 1023108
03:00+6ююз35925 0.0 102285
06:00+7юз25944 0.0 1021102
09:00+12юз247552 0.0 1020336
12:00+15зюз23635 0.0 1019824
15:00+16зсз235385 0.0 10191330
18:00+9ссв61182100 0.0 1020484
21:00
16 апреля, пт
пт1600:00+5св5108599 0.0 1023600
03:00+4св4108785 0.0 1023550
06:00+4св5108056 0.0 1024610
09:00+6св57540 0.0 1024909
12:00+9св56415 0.0 10251340
15:00+9св453717 0.0 10251540
18:00+8св35485 0.0 1025157
21:00+4с38610 0.0 1026175
17 апреля, сб
сб1700:00+2ссв22725 0.0 102629
03:00+1ссз22762 0.0 102721
06:00+1с39725 0.0 1027328
09:00+5с575715 0.0 10271232
12:00+7с57365 0.0 10271847
15:00+7ссв5734100 0.0 10272215
18:00+6ссв47447 0.0 1028592
21:00+2св226017 0.0 102923